Location: Seattle
(47.6064°N, 122.3308°W)
Time: 05:39:00
(UTC-08:00)

S-56A Canister/Altair - Pass Details

Date: 28 November 2020
Orbit: 633 x 2499 km, 38.9° (Epoch: 23 January)

Event Time Altitude Azimuth Distance (km) Brightness Sun altitude
Rises 23:47:01 0° 270° (W) 4,427 - -63.9°
Reaches altitude 10° 23:50:50 10° 260° (W) 3,123 - -63.9°
Maximum altitude 23:56:50 28° 205° (SSW) 1,653 - -64.0°
Drops below altitude 10° 00:01:22 10° 146° (SE) 2,303 - -64.0°
Sets 00:03:46 0° 134° (SE) 3,089 - -63.9°
